SCP
4 4 3 3 3 3 3 3 3 2 2 2 2 2 1 1 0 0 0 0 0 0 0 0 0 0 0 0 0 0 0 0 0 0 0 0 0 0 0 0 0 0 0
4 4 4 3 3 3 3 3 2 2 2 2 2 2 1 1 0 0 0 0 0 0 0 0 0 0 0 0 0 0 0 0 0 0 0 0 0 0 0 0 0 0 0
4 4 4 4 4 3 3 3 2 2 2 2 2 2 1 1 0 0 0 0 0 0 0 0 0 0 0 0 0 0 0 0 0 0 0 0 0 0 0 0 0 0 0
4 4 4 4 4 3 3 2 2 2 1 1 2 2 1 1 0 0 0 0 0 0 0 0 0 0 0 0 0 0 0 0 0 0 0 0 0 0 0 0 0 0 0
3 3 3 3 3 3 2 2 2 1 1 1 1 1 1 1 0 0 0 0 0 0 0 0 0 0 0 0 0 0 0 0 0 0 0 0 0 0 0 0 0 0 0
3 3 3 2 2 2 2 2 2 1 1 1 1 1 1 0 0 0 0 0 0 0 0 0 0 0 0 0 0 0 0 0 0 0 0 0 0 0 0 0 0 0 0
2 2 2 2 2 2 2 1 1 1 1 1 1 0 0 0 0 0 0 0 0 0 0 0 0 0 0 0 0 0 0 0 0 0 0 0 0 0 0 0 0 1 1
2 2 1 1 1 1 1 1 1 1 1 0 0 0 0 0 0 0 0 0 0 0 0 0 0 0 0 0 0 0 0 0 0 0 0 0 0 0 0 0 1 1 1
1 1 1 1 1 1 1 1 1 1 1 0 0 0 0 0 0 0 0 0 0 0 0 0 0 0 0 0 0 0 0 0 0 0 0 0 0 0 0 0 1 1 1
1 1 1 1 1 1 1 1 1 1 1 0 0 0 0 0 0 0 0 0 0 0 0 0 0 0 0 0 0 0 0 0 0 0 0 0 0 0 0 0 1 1 1
1 1 1 1 1 1 1 1 1 1 1 1 0 0 0 0 0 0 0 0 0 0 0 0 0 0 0 0 0 0 0 0 0 0 0 0 0 0 0 0 1 1 1
1 1 1 1 1 1 1 1 1 1 1 1 1 0 0 0 0 0 0 0 0 0 0 0 0 0 0 0 0 0 0 0 0 0 0 0 0 0 0 1 1 1 0
1 1 1 1 1 1 1 1 1 1 1 1 1 1 0 0 0 0 0 0 0 0 0 0 0 0 0 0 0 0 0 0 0 0 0 0 0 0 0 1 1 1 1
1 1 1 1 1 1 1 1 1 1 1 1 1 1 1 1 1 1 0 0 0 0 0 0 0 0 0 0 0 0 0 0 0 0 0 0 0 0 0 0 0 0 0
1 1 1 1 1 1 1 1 1 1 1 1 1 1 1 1 1 1 1 0 0 0 0 0 0 0 0 0 0 0 0 0 0 0 0 0 0 0 0 0 0 0 0
1 1 1 1 1 1 1 1 1 1 1 1 1 1 1 1 1 1 1 1 0 0 0 0 0 0 0 0 0 0 0 0 0 0 0 0 0 0 0 0 0 0 0
1 1 1 0 0 0 1 1 1 1 1 1 1 1 1 1 1 1 1 1 1 0 0 0 0 0 0 0 0 0 0 0 0 0 0 0 0 0 0 0 0 0 0
0 0 0 0 0 0 1 1 1 1 1 1 1 1 1 1 0 1 1 1 1 0 0 0 0 0 0 0 0 0 0 0 0 0 0 0 0 0 0 0 0 0 0
0 0 0 0 0 0 0 1 1 1 0 0 0 1 1 0 0 0 0 1 1 0 0 0 0 0 0 0 0 0 0 0 0 0 0 0 0 0 0 0 0 0 0
0 0 0 0 0 0 0 1 1 0 0 0 0 0 0 0 0 0 0 0 1 0 0 0 0 0 0 0 0 0 0 0 0 0 0 0 0 0 0 0 0 0 0
0 0 0 0 0 0 0 1 1 0 0 0 0 0 0 0 0 0 0 0 0 0 0 0 0 0 0 0 0 0 0 0 0 0 0 0 0 0 0 0 0 0 0
0 0 0 0 0 0 0 1 1 0 0 0 0 0 0 0 0 0 0 0 0 0 0 0 0 0 0 0 0 0 0 0 0 0 0 0 0 0 0 0 0 0 0
0 0 0 0 0 0 0 1 1 0 0 0 0 0 0 0 0 0 0 0 0 0 0 0 0 0 0 0 0 0 0 0 0 0 0 0 0 0 0 0 0 0 0
0 0 0 0 0 0 0 1 0 0 0 0 0 0 0 0 0 0 0 0 0 0 0 0 0 0 0 0 0 0 0 0 0 0 0 0 0 0 0 0 0 0 0
0 0 0 0 0 0 0 0 0 0 0 0 0 0 0 0 0 0 0 0 0 0 0 0 0 0 0 0 0 0 0 0 0 0 0 0 0 0 0 0 0 0 0
0 0 0 0 0 0 0 0 0 0 0 0 0 0 0 0 0 0 0 0 0 0 0 0 0 0 0 0 0 0 0 0 0 0 0 0 0 0 0 0 0 0 0
Wind_Speed
6 6 6 6 8 7 8 8 9 10 10 10 9 10 10 9 8 7 5 8 8 9 10 10 10 9 8 7 6 5 4 4 3 2 2 2 2 3 3 4 4 5 5
6 6 7 7 7 8 8 9 10 9 8 8 9 10 10 9 9 9 7 8 9 9 11 11 10 10 9 9 8 7 6 5 5 4 4 3 3 4 4 5 5 6 6
7 7 7 7 7 8 9 8 10 8 8 8 9 10 9 9 9 9 9 7 8 9 10 11 11 10 10 9 9 8 7 7 6 6 5 5 5 5 5 6 6 6 7
9 7 7 7 8 7 7 7 8 8 8 9 8 8 8 7 10 10 9 8 7 8 9 11 11 11 11 10 10 9 9 8 8 7 7 7 7 7 7 6 6 7 7
9 8 7 7 8 7 8 8 8 8 9 9 8 8 7 8 9 9 10 10 9 8 8 9 10 10 11 11 11 11 10 10 9 9 8 8 8 8 7 7 7 7 7
9 8 7 8 8 7 8 9 10 9 8 8 7 7 7 7 8 9 10 9 9 10 10 9 8 9 10 12 12 12 12 11 10 10 10 9 9 9 8 8 7 7 7
9 9 7 8 8 8 9 11 9 11 9 7 6 6 6 8 8 8 8 9 10 10 10 10 9 8 7 11 12 13 13 13 12 11 11 11 10 10 9 9 8 8 8
10 8 10 8 9 8 10 11 10 9 7 8 7 5 5 6 8 8 8 9 10 9 10 11 11 10 8 7 8 12 14 14 13 13 12 12 11 11 10 10 9 9 9
10 10 11 9 9 10 9 11 12 12 9 9 9 7 6 6 4 7 10 9 10 9 10 10 12 11 11 9 8 10 13 14 14 14 13 12 12 12 11 10 10 9 9
10 11 11 11 10 9 11 12 13 11 12 10 9 9 7 4 4 5 7 9 11 11 11 9 11 12 11 9 9 9 11 13 15 15 14 13 13 13 12 10 10 10 9
10 10 11 11 11 10 11 13 13 13 11 11 9 8 8 6 7 5 6 7 8 9 10 11 9 10 11 11 9 11 12 13 15 15 14 14 13 13 12 11 10 10 9
7 10 10 10 11 10 11 11 12 14 12 13 10 9 8 8 8 7 7 8 8 8 9 9 9 9 9 10 11 11 13 14 14 14 13 13 12 12 12 11 11 10 10
6 9 9 10 10 10 11 11 12 13 14 14 13 10 10 10 8 7 6 6 7 6 7 8 9 9 8 9 9 12 13 14 14 14 13 12 11 11 11 10 11 11 10
7 9 10 10 11 12 11 11 10 12 12 13 14 13 10 10 9 8 7 6 6 6 7 9 8 9 8 9 9 12 11 14 15 14 14 13 12 11 11 10 10 9 9
7 9 9 10 11 11 12 11 9 12 12 12 13 13 11 10 9 9 8 8 7 7 8 9 7 9 8 8 8 10 11 13 15 15 14 13 13 12 12 11 10 9 8
8 9 9 9 9 10 11 11 10 11 13 12 10 12 12 9 9 8 8 8 8 8 7 6 6 6 8 7 9 11 10 11 14 15 14 14 13 13 12 11 11 10 9
8 9 9 9 9 10 10 11 11 11 13 12 12 13 14 12 9 8 8 8 8 7 8 5 5 5 8 9 8 9 8 9 9 14 14 14 13 13 12 12 11 11 10
8 9 8 9 9 9 10 11 11 11 12 13 13 13 13 10 12 9 8 9 8 9 8 8 6 6 8 9 9 9 7 7 7 10 13 14 13 13 12 12 11 11 10
8 8 8 9 9 9 9 9 10 11 12 12 12 13 13 12 13 10 10 9 8 7 7 7 6 5 5 5 7 7 8 6 6 7 10 12 13 13 13 12 12 11 10
8 8 8 9 9 9 9 9 9 10 11 12 12 12 13 13 13 12 10 11 9 8 7 7 6 6 5 6 6 6 6 6 6 6 7 8 10 12 13 13 12 11 10
8 7 8 9 9 9 8 9 9 10 10 11 12 12 12 13 13 11 9 9 9 8 7 7 7 6 6 6 7 6 6 5 6 5 5 6 6 7 8 11 12 11 11
7 8 9 9 9 8 9 11 10 10 9 11 12 11 11 13 14 14 13 13 12 11 9 8 7 8 9 9 7 7 6 5 5 5 5 5 5 6 6 6 8 11 11
7 7 8 8 9 10 10 12 12 10 10 10 11 10 9 9 12 12 12 12 12 13 13 10 10 11 10 9 9 9 8 7 5 4 5 5 5 6 5 5 9 11 11
7 7 7 8 9 9 10 12 12 11 10 11 11 11 11 11 11 11 9 10 10 10 10 9 10 10 8 8 9 9 8 5 2 3 5 4 4 4 3 4 8 10 10
7 7 7 8 9 9 10 11 10 8 9 10 10 10 11 11 12 12 10 9 9 8 7 8 8 8 9 10 9 6 6 5 4 4 4 3 3 2 3 4 5 9 10
7 7 7 8 8 9 9 10 10 7 8 7 7 9 11 12 13 14 11 10 10 8 6 5 5 5 7 9 11 9 8 7 4 4 5 4 3 2 2 2 3 4 5
Wind_Direction
211 205 206 203 200 197 194 195 197 193 195 196 197 199 200 201 202 199 180 181 204 210 204 199 193 190 191 191 193 195 200 203 204 214 235 259 288 299 307 314 322 324 326
213 210 211 209 205 201 199 199 200 196 197 198 201 203 205 204 207 205 202 187 199 210 210 206 202 201 201 202 202 206 212 216 220 231 243 258 271 282 291 298 306 311 315
215 214 213 209 208 204 203 202 201 199 198 198 203 207 208 210 208 209 208 204 198 202 211 212 210 212 212 211 212 214 218 222 229 237 245 254 261 270 279 285 293 300 305
219 217 215 212 208 204 201 200 199 198 199 199 201 203 207 209 213 212 209 208 207 205 204 209 213 218 220 219 220 222 224 228 233 237 243 250 256 263 270 276 285 292 298
221 219 217 214 208 206 203 201 201 202 202 202 203 204 208 210 212 213 214 213 213 212 210 198 206 216 223 225 226 226 228 232 235 239 243 248 253 260 266 271 277 284 291
221 222 218 215 208 208 206 204 203 204 207 203 202 207 211 212 214 215 217 217 215 216 217 212 207 207 216 227 231 232 233 235 238 241 243 246 250 256 262 266 269 278 283
222 222 219 214 211 212 211 209 206 203 207 197 195 207 216 219 220 217 218 218 216 217 219 217 216 216 209 215 226 234 236 237 239 241 243 245 247 252 256 259 265 271 278
223 221 219 217 214 214 214 211 208 206 203 196 196 194 208 213 217 218 217 219 219 215 219 220 219 218 221 218 212 222 235 238 240 242 244 244 246 250 252 256 261 266 274
226 225 221 219 218 216 215 213 208 210 206 203 205 204 204 215 200 205 215 217 218 217 218 218 221 221 222 223 219 212 224 235 239 241 243 243 245 248 250 253 257 262 269
230 227 225 222 221 222 218 215 214 213 209 207 207 220 226 223 209 202 205 215 219 222 222 219 220 221 221 222 221 223 217 227 236 240 242 244 245 247 249 250 254 259 264
232 230 228 225 223 224 223 218 215 215 212 213 208 207 215 222 226 222 218 209 215 221 223 222 221 220 219 220 221 221 214 223 232 238 241 244 245 246 247 247 251 255 259
234 231 230 229 227 226 224 223 218 218 216 216 214 210 208 208 212 217 225 215 216 217 218 221 222 220 218 220 220 215 212 219 226 232 237 242 245 247 247 246 247 250 254
237 232 230 231 230 228 225 224 224 221 219 217 216 216 216 220 218 220 226 226 228 221 217 222 221 221 217 219 218 207 214 218 221 225 228 232 237 241 245 247 248 248 252
240 238 234 235 235 232 228 224 227 223 220 220 220 219 219 221 219 217 217 217 227 230 223 223 212 216 216 217 217 203 216 214 217 221 222 224 227 232 238 242 245 247 252
244 240 238 240 238 235 231 226 227 227 222 222 220 220 221 222 220 219 218 216 219 231 233 226 219 212 212 215 206 213 220 210 212 216 218 220 222 226 229 232 236 241 244
249 240 239 241 241 238 235 229 229 230 225 223 221 220 222 222 220 218 218 221 223 230 239 230 226 212 204 211 208 218 219 207 210 213 216 218 220 222 224 227 231 235 239
252 240 239 240 240 238 236 232 230 230 227 225 223 222 222 221 218 216 216 217 221 223 233 236 232 219 212 214 209 216 216 215 212 210 213 216 217 218 219 222 226 231 236
252 246 241 242 241 238 236 234 231 231 228 225 223 223 222 217 220 218 215 216 220 221 222 227 222 219 220 218 214 211 212 217 219 208 210 214 216 215 216 220 223 227 234
254 249 245 244 242 237 235 235 234 235 234 230 225 223 222 216 218 219 216 216 219 221 219 219 218 213 214 213 214 214 214 215 218 211 210 214 215 216 215 218 221 226 231
252 254 250 247 243 239 236 235 236 239 237 233 230 227 223 219 218 217 217 217 214 214 212 212 214 210 202 201 204 208 210 212 214 210 213 214 213 213 215 218 221 224 227
254 255 256 252 244 241 235 233 236 237 240 236 232 228 225 220 216 215 216 215 212 210 209 210 211 209 202 193 204 201 211 208 212 204 211 210 208 213 214 219 221 221 223
267 259 257 257 251 247 241 238 239 238 241 240 234 228 224 217 213 210 214 214 212 210 211 212 216 213 211 206 201 199 197 201 216 197 205 213 205 214 216 218 214 214 220
276 267 261 261 259 252 246 241 239 240 240 241 235 226 221 218 213 214 213 213 217 217 213 217 218 217 211 203 196 200 203 207 215 178 190 214 206 221 214 215 210 213 218
273 272 270 263 264 261 254 248 242 241 245 242 233 224 220 217 214 209 210 217 224 224 221 223 227 222 212 200 199 202 198 199 200 182 193 213 207 221 213 217 207 211 215
274 272 271 269 267 266 254 249 241 244 245 242 233 227 221 219 208 197 202 210 220 226 226 228 232 219 202 194 189 180 179 180 196 198 200 210 201 215 222 224 211 209 214
276 276 274 273 272 272 264 249 242 246 246 244 237 231 220 216 204 195 204 205 212 216 210 219 220 206 201 192 189 194 189 189 185 194 189 191 181 171 211 221 219 213 216